FW7773 Weather Reports


time (UTC)temp
C
wind
direction
speed
KPH
gust
KPH
rain 1hr
cm
rain 24hr
cm
rain mn
cm
humidity
%
barometer
mb
20260906124507 26 27 4.8 8.0 0.00 0.00 0.00 84 1010.8
20260906123042 26 23 1.6 6.4 0.00 0.00 0.00 86 1010.5
20260906121519 25 89 3.2 6.4 0.00 0.00 0.00 86 1010.3
20260906120054 25 83 3.2 6.4 0.00 0.00 0.00 86 1010.2
20260906114531 25 76 1.6 4.8 0.00 0.00 0.00 86 1010.2
20260906113005 24 60 1.6 4.8 0.00 0.00 0.00 89 1010.2
20260906111544 24 59 3.2 6.4 0.00 0.00 0.00 91 1009.9
20260906110013 24 55 3.2 8.0 0.00 0.00 0.00 92 1009.8
20260906104609 24 34 0.0 0.0 0.00 0.00 0.00 93 1009.6
20260906103033 24 26 0.0 0.0 0.00 0.00 0.00 93 1009.5
20260906101602 24 41 0.0 4.8 0.00 0.00 0.00 93 1009.4
20260906100039 25 44 1.6 6.4 0.00 0.00 0.00 92 1009.4
20260906094507 25 17 3.2 6.4 0.00 0.00 0.00 93 1009.3
20260906093058 25 55 0.0 0.0 0.00 0.00 0.00 92 1009.1
20260906091516 25 360 1.6 4.8 0.00 0.00 0.00 92 1009.2
20260906090052 25 138 0.0 3.2 0.00 0.00 0.00 92 1009.1
20260906084530 25 19 1.6 6.4 0.00 0.00 0.00 92 1009.2
20260906083002 25 95 1.6 8.0 0.00 0.00 0.00 91 1009.1
20260906081536 25 13 0.0 6.4 0.00 0.00 0.00 91 1009.2
20260906080008 25 13 4.8 11.3 0.00 0.00 0.00 90 1009.3
20260906074543 25 5 4.8 9.7 0.00 0.00 0.00 90 1009.2
20260906073018 25 51 0.0 0.0 0.00 0.00 0.00 91 1009.2
20260906071544 26 17 0.0 0.0 0.00 0.00 0.00 91 1009.6
20260906070017 26 34 0.0 0.0 0.00 0.00 0.00 91 1009.6
20260906064550 26 355 0.0 0.0 0.00 0.00 0.00 92 1010.0
20260906063025 26 36 0.0 0.0 0.00 0.00 0.00 92 1010.0
20260906061558 26 20 0.0 0.0 0.00 0.00 0.00 92 1010.0
20260906060028 26 36 0.0 0.0 0.00 0.00 0.00 92 1010.1
20260906054607 27 355 0.0 0.0 0.00 0.00 0.00 92 1010.0
20260906053032 27 43 0.0 0.0 0.00 0.00 0.00 91 1010.1
20260906051600 27 355 0.0 6.4 0.00 0.00 0.00 91 1010.2
20260906050033 27 345 3.2 9.7 0.00 0.00 0.00 91 1010.3
20260906044502 27 360 3.2 8.0 0.00 0.00 0.00 92 1010.4
20260906043033 28 32 0.0 4.8 0.00 0.00 0.00 93 1010.7
20260906041507 28 50 1.6 6.4 0.00 0.00 0.00 93 1010.8
20260906040041 28 66 0.0 14.5 0.00 0.00 0.00 93 1010.6
20260906034512 28 281 6.4 14.5 0.00 0.00 0.00 92 1010.6
20260906033101 28 300 8.0 20.9 0.00 0.00 0.00 92 1010.2
20260906031525 28 306 9.7 19.3 0.00 0.00 0.00 92 1010.4
20260906030002 28 312 4.8 16.1 0.00 0.00 0.00 92 1010.3
20260906024542 28 267 6.4 16.1 0.00 0.00 0.00 92 1010.1
20260906023020 28 242 9.7 20.9 0.00 0.00 0.00 91 1010.0
20260906021555 28 276 6.4 17.7 0.00 0.00 0.00 92 1009.9
20260906020032 28 80 0.0 1.6 0.00 0.00 0.00 92 1009.9
20260906014506 28 247 6.4 19.3 0.00 0.00 0.00 92 1008.5
20260906013038 28 278 0.0 17.7 0.00 0.00 0.00 92 1008.9
20260906011509 28 255 3.2 19.3 0.00 0.00 0.00 91 1009.5
20260906010045 28 297 6.4 19.3 0.00 0.00 0.00 91 1009.9
20260906004518 28 287 11.3 19.3 0.00 0.00 0.00 89 1010.0
20260906003058 28 209 12.9 19.3 0.00 0.00 0.00 89 1010.1
20260906001535 28 315 12.9 19.3 0.00 0.00 0.00 89 1010.3
20260906000010 28 259 11.3 19.3 0.00 0.00 0.00 88 1010.2
20260905234602 28 267 11.3 19.3 0.00 0.00 0.00 88 1010.3
20260905233034 29 259 11.3 19.3 0.00 0.00 0.00 87 1010.2
20260905231600 29 271 6.4 19.3 0.00 0.00 0.00 86 1010.3
20260905230046 30 267 4.8 17.7 0.00 0.00 0.00 86 1010.0
20260905224510 31 183 11.3 20.9 0.00 0.00 0.00 83 1010.0
20260905223047 31 298 8.0 17.7 0.00 0.00 0.00 82 1009.8
20260905221532 31 186 4.8 17.7 0.00 0.00 0.00 83 1009.9
20260905220059 31 252 8.0 22.5 0.00 0.00 0.00 81 1009.8
20260905214537 31 313 4.8 17.7 0.00 0.00 0.00 81 1009.7
20260905213007 31 117 8.0 17.7 0.00 0.00 0.00 80 1009.9
20260905211554 32 185 6.4 22.5 0.00 0.00 0.00 79 1009.6
20260905210023 32 240 6.4 22.5 0.00 0.00 0.00 80 1009.6
20260905204500 32 189 8.0 16.1 0.00 0.00 0.00 81 1009.5
20260905203046 32 316 8.0 20.9 0.00 0.00 0.00 80 1009.2
20260905201513 32 278 4.8 17.7 0.00 0.00 0.00 80 1009.1
20260905200059 32 41 6.4 22.5 0.00 0.00 0.00 80 1009.0
20260905194520 32 277 8.0 19.3 0.00 0.00 0.00 79 1009.3
20260905193108 32 81 6.4 17.7 0.00 0.00 0.00 79 1009.5
20260905191525 32 311 6.4 17.7 0.00 0.00 0.00 80 1009.9
20260905190055 31 232 6.4 12.9 0.00 0.00 0.00 82 1010.4
20260905184525 32 74 6.4 16.1 0.00 0.00 0.00 80 1010.6
20260905183101 32 154 4.8 19.3 0.00 0.00 0.00 78 1010.8
20260905181531 32 13 6.4 16.1 0.00 0.00 0.00 77 1010.8
20260905180002 32 40 8.0 19.3 0.00 0.00 0.00 79 1011.0
20260905174531 32 208 6.4 16.1 0.00 0.00 0.00 78 1011.2
20260905173102 32 319 4.8 16.1 0.00 0.00 0.00 79 1011.5
20260905171535 32 240 4.8 14.5 0.00 0.00 0.00 79 1011.7
20260905170004 32 170 4.8 14.5 0.00 0.00 0.00 81 1011.9
20260905164538 32 177 3.2 16.1 0.00 0.00 0.00 79 1012.0
20260905163006 32 221 4.8 12.9 0.00 0.00 0.00 78 1012.3
20260905161535 31 296 6.4 11.3 0.00 0.00 0.00 74 1012.5
20260905160012 31 355 4.8 14.5 0.00 0.00 0.00 78 1012.6
20260905154544 31 190 3.2 16.1 0.00 0.00 0.00 77 1012.7
20260905153001 30 306 4.8 12.9 0.00 0.00 0.00 79 1012.9
20260905151536 30 277 9.7 17.7 0.00 0.00 0.00 81 1012.9
20260905150004 30 319 4.8 14.5 0.00 0.00 0.00 83 1013.0
20260905144538 30 313 4.8 19.3 0.00 0.00 0.00 83 1013.0
20260905143010 29 335 8.0 16.1 0.00 0.00 0.00 84 1013.2
20260905141538 29 292 8.0 16.1 0.00 0.00 0.00 86 1013.1
20260905140005 28 291 6.4 9.7 0.00 0.00 0.00 88 1013.1
20260905134544 28 344 3.2 17.7 0.00 0.00 0.00 90 1013.2
20260905133009 28 324 4.8 9.7 0.00 0.00 0.00 92 1013.3
20260905131543 27 355 4.8 9.7 0.00 0.00 0.00 92 1013.4
20260905130016 27 343 4.8 9.7 0.00 0.00 0.00 93 1013.4